| time (UTC) | temp F | wind direction | speed knots | gust knots | rain 1hr in | rain 24hr in | rain mn in | humidity % | barometer mb |
| 20260507224138 | 57 | 218 | 2.6 | 2.6 | 0.00 | 0.00 | 0.00 | 40 | 1007.1 |
| 20260507223634 | 57 | 23 | 7.8 | 12.2 | 0.00 | 0.00 | 0.00 | 46 | 1007.2 |
| 20260507223131 | 57 | 220 | 9.6 | 14.8 | 0.00 | 0.00 | 0.00 | 47 | 1007.1 |
| 20260507222628 | 58 | 163 | 4.3 | 6.1 | 0.00 | 0.00 | 0.00 | 38 | 1006.9 |
| 20260507222124 | 59 | 339 | 2.6 | 2.6 | 0.00 | 0.00 | 0.00 | 39 | 1006.7 |
| 20260507221621 | 58 | 294 | 1.7 | 2.6 | 0.00 | 0.00 | 0.00 | 38 | 1006.8 |
| 20260507221117 | 58 | 107 | 2.6 | 2.6 | 0.00 | 0.00 | 0.00 | 41 | 1006.8 |
| 20260507220615 | 57 | 207 | 3.5 | 4.3 | 0.00 | 0.00 | 0.00 | 39 | 1006.9 |
| 20260507220112 | 57 | 116 | 0.9 | 1.7 | 0.00 | 0.00 | 0.00 | 40 | 1006.8 |
| 20260507215608 | 58 | 246 | 5.2 | 10.4 | 0.00 | 0.00 | 0.00 | 40 | 1006.8 |
| 20260507215106 | 58 | 194 | 3.5 | 4.3 | 0.00 | 0.00 | 0.00 | 48 | 1007.0 |
| 20260507214603 | 59 | 262 | 10.4 | 16.5 | 0.00 | 0.00 | 0.00 | 42 | 1006.8 |
| 20260507214059 | 59 | 271 | 11.3 | 14.8 | 0.00 | 0.00 | 0.00 | 44 | 1006.7 |
| 20260507213555 | 59 | 169 | 3.5 | 7.8 | 0.00 | 0.00 | 0.00 | 45 | 1006.9 |
| 20260507213053 | 59 | 269 | 9.6 | 12.2 | 0.00 | 0.00 | 0.00 | 42 | 1006.9 |
| 20260507212548 | 59 | 185 | 9.6 | 12.2 | 0.00 | 0.00 | 0.00 | 46 | 1006.6 |
| 20260507212046 | 59 | 277 | 11.3 | 16.5 | 0.00 | 0.00 | 0.00 | 45 | 1006.8 |
| 20260507211542 | 59 | 306 | 7.8 | 14.8 | 0.00 | 0.00 | 0.00 | 43 | 1006.8 |
| 20260507211038 | 59 | 246 | 6.1 | 10.4 | 0.00 | 0.00 | 0.00 | 41 | 1006.8 |
| 20260507210536 | 60 | 277 | 7.8 | 12.2 | 0.00 | 0.00 | 0.00 | 42 | 1006.8 |
| 20260507210032 | 59 | 76 | 3.5 | 6.1 | 0.00 | 0.00 | 0.00 | 41 | 1006.8 |
| 20260507205529 | 59 | 293 | 14.8 | 20.9 | 0.00 | 0.00 | 0.00 | 40 | 1006.5 |
| 20260507205025 | 59 | 305 | 4.3 | 8.7 | 0.00 | 0.00 | 0.00 | 42 | 1006.6 |
| 20260507204521 | 59 | 122 | 11.3 | 16.5 | 0.00 | 0.00 | 0.00 | 42 | 1006.6 |
| 20260507204020 | 60 | 306 | 7.8 | 12.2 | 0.00 | 0.00 | 0.00 | 45 | 1006.6 |
| 20260507203517 | 59 | 242 | 5.2 | 6.1 | 0.00 | 0.00 | 0.00 | 42 | 1006.5 |
| 20260507203014 | 59 | 20 | 5.2 | 7.8 | 0.00 | 0.00 | 0.00 | 42 | 1006.6 |
| 20260507202510 | 58 | 252 | 14.8 | 18.2 | 0.00 | 0.00 | 0.00 | 41 | 1006.5 |
| 20260507202006 | 60 | 221 | 4.3 | 6.1 | 0.00 | 0.00 | 0.00 | 48 | 1006.6 |
| 20260507201502 | 59 | 206 | 2.6 | 2.6 | 0.00 | 0.00 | 0.00 | 41 | 1006.6 |
| 20260507200958 | 59 | 197 | 6.1 | 7.8 | 0.00 | 0.00 | 0.00 | 45 | 1006.7 |
| 20260507200454 | 60 | 320 | 9.6 | 13.0 | 0.00 | 0.00 | 0.00 | 43 | 1006.6 |
| 20260507195949 | 58 | 255 | 10.4 | 13.0 | 0.00 | 0.00 | 0.00 | 46 | 1006.7 |
| 20260507195448 | 60 | 276 | 11.3 | 13.0 | 0.00 | 0.00 | 0.00 | 47 | 1006.7 |
| 20260507194945 | 59 | 81 | 4.3 | 7.8 | 0.00 | 0.00 | 0.00 | 41 | 1006.6 |
| 20260507194441 | 57 | 201 | 0.9 | 1.7 | 0.00 | 0.00 | 0.00 | 45 | 1006.7 |
| 20260507193937 | 58 | 240 | 2.6 | 2.6 | 0.00 | 0.00 | 0.00 | 47 | 1006.9 |
| 20260507193434 | 58 | 300 | 6.1 | 10.4 | 0.00 | 0.00 | 0.00 | 43 | 1006.7 |
| 20260507192931 | 59 | 227 | 5.2 | 7.8 | 0.00 | 0.00 | 0.00 | 45 | 1006.9 |
| 20260507192427 | 57 | 172 | 2.6 | 4.3 | 0.00 | 0.00 | 0.00 | 43 | 1006.8 |
| 20260507191925 | 57 | 249 | 4.3 | 6.1 | 0.00 | 0.00 | 0.00 | 41 | 1006.9 |
| 20260507191420 | 57 | 153 | 2.6 | 4.3 | 0.00 | 0.00 | 0.00 | 49 | 1007.1 |
| 20260507190917 | 58 | 326 | 4.3 | 6.1 | 0.00 | 0.00 | 0.00 | 48 | 1006.9 |
| 20260507190415 | 57 | 296 | 7.8 | 10.4 | 0.00 | 0.00 | 0.00 | 48 | 1006.9 |
| 20260507185914 | 59 | 273 | 4.3 | 6.1 | 0.00 | 0.00 | 0.00 | 45 | 1007.0 |
| 20260507185411 | 59 | 4 | 3.5 | 4.3 | 0.00 | 0.00 | 0.00 | 42 | 1007.4 |
| 20260507184907 | 59 | 276 | 7.8 | 13.0 | 0.00 | 0.00 | 0.00 | 45 | 1007.2 |
| 20260507184405 | 58 | 39 | 3.5 | 6.1 | 0.00 | 0.00 | 0.00 | 49 | 1007.3 |
| 20260507183902 | 59 | 228 | 8.7 | 12.2 | 0.00 | 0.00 | 0.00 | 50 | 1007.3 |
| 20260507183359 | 59 | 316 | 4.3 | 6.1 | 0.00 | 0.00 | 0.00 | 44 | 1007.2 |
| 20260507182856 | 59 | 272 | 5.2 | 7.8 | 0.00 | 0.00 | 0.00 | 44 | 1007.3 |
| 20260507182352 | 58 | 216 | 1.7 | 2.6 | 0.00 | 0.00 | 0.00 | 49 | 1007.3 |
| 20260507181849 | 59 | 254 | 8.7 | 12.2 | 0.00 | 0.00 | 0.00 | 50 | 1007.3 |
| 20260507181344 | 59 | 280 | 12.2 | 13.0 | 0.00 | 0.00 | 0.00 | 48 | 1007.6 |
| 20260507180842 | 59 | 242 | 10.4 | 13.0 | 0.00 | 0.00 | 0.00 | 46 | 1007.4 |
| 20260507180338 | 59 | 139 | 3.5 | 4.3 | 0.00 | 0.00 | 0.00 | 44 | 1007.4 |
| 20260507175834 | 57 | 14 | 2.6 | 4.3 | 0.00 | 0.00 | 0.00 | 46 | 1007.4 |
| 20260507175331 | 58 | 138 | 2.6 | 6.1 | 0.00 | 0.00 | 0.00 | 52 | 1007.3 |
| 20260507174829 | 59 | 351 | 6.1 | 8.7 | 0.00 | 0.00 | 0.00 | 42 | 1007.5 |
| 20260507174326 | 58 | 203 | 5.2 | 7.8 | 0.00 | 0.00 | 0.00 | 48 | 1007.2 |
| 20260507173823 | 57 | 209 | 4.3 | 7.8 | 0.00 | 0.00 | 0.00 | 46 | 1007.3 |
| 20260507173320 | 58 | 278 | 16.5 | 22.6 | 0.00 | 0.00 | 0.00 | 49 | 1007.5 |
| 20260507172816 | 58 | 282 | 9.6 | 12.2 | 0.00 | 0.00 | 0.00 | 52 | 1007.6 |
| 20260507172314 | 58 | 82 | 4.3 | 6.1 | 0.00 | 0.00 | 0.00 | 44 | 1007.6 |
| 20260507171809 | 59 | 92 | 7.8 | 13.0 | 0.00 | 0.00 | 0.00 | 46 | 1007.4 |
| 20260507171306 | 59 | 6 | 7.0 | 13.0 | 0.00 | 0.00 | 0.00 | 42 | 1007.5 |
| 20260507170803 | 59 | 29 | 5.2 | 6.1 | 0.00 | 0.00 | 0.00 | 40 | 1007.4 |
| 20260507170300 | 58 | 182 | 3.5 | 6.1 | 0.00 | 0.00 | 0.00 | 49 | 1007.6 |
| 20260507165755 | 58 | 129 | 2.6 | 4.3 | 0.00 | 0.00 | 0.00 | 54 | 1007.8 |
| 20260507165252 | 58 | 221 | 9.6 | 13.0 | 0.00 | 0.00 | 0.00 | 52 | 1007.8 |
| 20260507164748 | 58 | 70 | 8.7 | 13.0 | 0.00 | 0.00 | 0.00 | 55 | 1007.7 |
| 20260507164245 | 57 | 47 | 7.0 | 13.0 | 0.00 | 0.00 | 0.00 | 54 | 1007.7 |
| 20260507163742 | 57 | 262 | 11.3 | 13.0 | 0.00 | 0.00 | 0.00 | 52 | 1007.5 |
| 20260507163240 | 57 | 141 | 3.5 | 6.1 | 0.00 | 0.00 | 0.00 | 48 | 1007.9 |
| 20260507162736 | 57 | 317 | 14.8 | 20.9 | 0.00 | 0.00 | 0.00 | 56 | 1008.0 |
| 20260507162232 | 57 | 163 | 7.0 | 12.2 | 0.00 | 0.00 | 0.00 | 59 | 1008.2 |
| 20260507161729 | 57 | 63 | 4.3 | 6.1 | 0.00 | 0.00 | 0.00 | 56 | 1008.1 |
| 20260507161225 | 56 | 269 | 17.4 | 20.9 | 0.00 | 0.00 | 0.00 | 54 | 1008.0 |
| 20260507160721 | 56 | 199 | 8.7 | 12.2 | 0.00 | 0.00 | 0.00 | 56 | 1007.9 |
| 20260507160218 | 56 | 31 | 4.3 | 6.1 | 0.00 | 0.00 | 0.00 | 57 | 1008.0 |
| 20260507155714 | 55 | 135 | 1.7 | 2.6 | 0.00 | 0.28 | 0.28 | 60 | 1008.2 |
| 20260507155210 | 55 | 34 | 4.3 | 8.7 | 0.00 | 0.28 | 0.28 | 62 | 1008.1 |
| 20260507154706 | 56 | 193 | 6.1 | 7.8 | 0.00 | 0.28 | 0.28 | 62 | 1007.8 |
| 20260507154205 | 55 | 272 | 6.1 | 8.7 | 0.00 | 0.28 | 0.28 | 65 | 1008.2 |
| 20260507153701 | 55 | 9 | 7.8 | 8.7 | 0.00 | 0.28 | 0.28 | 61 | 1008.5 |
| 20260507153157 | 55 | 206 | 3.5 | 6.1 | 0.00 | 0.28 | 0.28 | 62 | 1008.2 |
| 20260507152654 | 55 | 152 | 0.9 | 1.7 | 0.00 | 0.28 | 0.28 | 70 | 1008.5 |
| 20260507152150 | 55 | 215 | 4.3 | 6.1 | 0.00 | 0.28 | 0.28 | 71 | 1008.6 |
| 20260507151646 | 53 | 198 | 7.0 | 8.7 | 0.00 | 0.28 | 0.28 | 74 | 1008.6 |
| 20260507151143 | 54 | 209 | 7.8 | 12.2 | 0.00 | 0.28 | 0.28 | 75 | 1008.6 |
| 20260507150640 | 54 | 245 | 11.3 | 13.0 | 0.00 | 0.28 | 0.28 | 75 | 1008.7 |
| 20260507150136 | 54 | 208 | 0.9 | 1.7 | 0.00 | 0.28 | 0.28 | 69 | 1008.6 |
| 20260507145632 | 54 | 213 | 0.9 | 1.7 | 0.00 | 0.28 | 0.28 | 71 | 1008.7 |
| 20260507145130 | 55 | 300 | 4.3 | 7.8 | 0.00 | 0.28 | 0.28 | 68 | 1008.5 |
| 20260507144626 | 54 | 176 | 7.8 | 14.8 | 0.00 | 0.28 | 0.28 | 71 | 1008.6 |
| 20260507144124 | 53 | 86 | 2.6 | 2.6 | 0.00 | 0.28 | 0.28 | 70 | 1008.9 |
| 20260507143620 | 53 | 89 | 1.7 | 1.7 | 0.00 | 0.28 | 0.28 | 71 | 1008.8 |
| 20260507143118 | 53 | 321 | 8.7 | 12.2 | 0.00 | 0.28 | 0.28 | 75 | 1008.7 |
| 20260507142613 | 53 | 301 | 10.4 | 16.5 | 0.00 | 0.28 | 0.28 | 76 | 1008.6 |
| 20260507142110 | 53 | 169 | 1.7 | 1.7 | 0.00 | 0.28 | 0.28 | 69 | 1008.7 |
| 20260507141606 | 53 | 221 | 6.1 | 7.8 | 0.00 | 0.28 | 0.28 | 76 | 1008.8 |
| 20260507141103 | 53 | 282 | 6.1 | 10.4 | 0.00 | 0.28 | 0.28 | 73 | 1008.5 |
| 20260507140600 | 53 | 224 | 6.1 | 8.7 | 0.00 | 0.28 | 0.28 | 72 | 1008.6 |
| 20260507140057 | 52 | 42 | 3.5 | 6.1 | 0.00 | 0.28 | 0.28 | 73 | 1008.6 |
| 20260507135554 | 52 | 186 | 2.6 | 4.3 | 0.00 | 0.28 | 0.28 | 77 | 1008.9 |
| 20260507135052 | 52 | 207 | 5.2 | 8.7 | 0.00 | 0.28 | 0.28 | 78 | 1008.9 |
| 20260507134548 | 52 | 243 | 2.6 | 4.3 | 0.00 | 0.28 | 0.28 | 75 | 1008.9 |
| 20260507134044 | 52 | 154 | 1.7 | 1.7 | 0.00 | 0.28 | 0.28 | 78 | 1008.9 |
| 20260507133540 | 52 | 293 | 7.0 | 10.4 | 0.00 | 0.28 | 0.28 | 79 | 1008.9 |
| 20260507133038 | 52 | 247 | 3.5 | 4.3 | 0.00 | 0.28 | 0.28 | 80 | 1009.0 |
| 20260507132534 | 51 | 195 | 7.0 | 12.2 | 0.00 | 0.28 | 0.28 | 80 | 1009.0 |
| 20260507132031 | 51 | 267 | 7.0 | 8.7 | 0.00 | 0.28 | 0.28 | 81 | 1009.1 |
| 20260507131528 | 51 | 146 | 4.3 | 7.8 | 0.00 | 0.28 | 0.28 | 81 | 1009.0 |
| 20260507131025 | 51 | 238 | 4.3 | 8.7 | 0.00 | 0.28 | 0.28 | 82 | 1008.9 |
| 20260507130522 | 51 | 289 | 7.0 | 10.4 | 0.00 | 0.28 | 0.28 | 81 | 1008.9 |
| 20260507130020 | 50 | 250 | 2.6 | 4.3 | 0.00 | 0.28 | 0.28 | 79 | 1009.0 |
| 20260507125518 | 50 | 215 | 1.7 | 1.7 | 0.00 | 0.28 | 0.28 | 79 | 1009.0 |
| 20260507125015 | 50 | 281 | 1.7 | 1.7 | 0.00 | 0.28 | 0.28 | 80 | 1008.8 |
| 20260507124512 | 50 | 207 | 0.0 | 0.0 | 0.00 | 0.28 | 0.28 | 80 | 1008.9 |
| 20260507124010 | 49 | 262 | 5.2 | 6.1 | 0.00 | 0.28 | 0.28 | 84 | 1008.8 |
| 20260507123508 | 49 | 233 | 0.9 | 1.7 | 0.00 | 0.28 | 0.28 | 81 | 1009.0 |
| 20260507123004 | 49 | 33 | 2.6 | 6.1 | 0.00 | 0.28 | 0.28 | 83 | 1009.1 |
| 20260507122459 | 48 | 334 | 2.6 | 4.3 | 0.00 | 0.28 | 0.28 | 81 | 1009.4 |
| 20260507121955 | 49 | 212 | 3.5 | 6.1 | 0.00 | 0.28 | 0.28 | 87 | 1009.3 |
| 20260507121450 | 48 | 346 | 3.5 | 4.3 | 0.00 | 0.28 | 0.28 | 85 | 1009.1 |
| 20260507120947 | 48 | 230 | 6.1 | 7.8 | 0.00 | 0.28 | 0.28 | 87 | 1009.3 |
| 20260507120443 | 48 | 274 | 5.2 | 7.8 | 0.00 | 0.28 | 0.28 | 88 | 1009.2 |
| 20260507115940 | 47 | 198 | 3.5 | 6.1 | 0.00 | 0.28 | 0.28 | 88 | 1009.1 |
| 20260507115436 | 47 | 191 | 1.7 | 1.7 | 0.00 | 0.28 | 0.28 | 89 | 1009.3 |
| 20260507114932 | 46 | 98 | 2.6 | 2.6 | 0.00 | 0.28 | 0.28 | 91 | 1009.1 |
| 20260507114429 | 46 | 119 | 1.7 | 2.6 | 0.00 | 0.28 | 0.28 | 91 | 1009.1 |
| 20260507113926 | 46 | 128 | 0.9 | 1.7 | 0.00 | 0.28 | 0.28 | 92 | 1009.1 |
| 20260507113423 | 45 | 162 | 1.7 | 1.7 | 0.00 | 0.28 | 0.28 | 92 | 1009.1 |
| 20260507112921 | 45 | 48 | 1.7 | 2.6 | 0.00 | 0.28 | 0.28 | 93 | 1009.2 |
| 20260507112418 | 45 | 215 | 0.9 | 1.7 | 0.00 | 0.28 | 0.28 | 93 | 1008.9 |
| 20260507111915 | 45 | 112 | 1.7 | 2.6 | 0.00 | 0.28 | 0.28 | 93 | 1009.1 |
| 20260507111412 | 45 | 150 | 0.9 | 1.7 | 0.00 | 0.28 | 0.28 | 94 | 1008.9 |
| 20260507110908 | 45 | 160 | 0.0 | 0.0 | 0.00 | 0.28 | 0.28 | 94 | 1008.8 |
| 20260507110404 | 45 | 127 | 0.0 | 1.7 | 0.00 | 0.28 | 0.28 | 93 | 1008.7 |
| 20260507105902 | 45 | 217 | 0.0 | 1.7 | 0.00 | 0.28 | 0.28 | 92 | 1008.6 |
| 20260507105358 | 45 | 174 | 0.0 | 0.0 | 0.00 | 0.28 | 0.28 | 92 | 1008.9 |
| 20260507104855 | 45 | 261 | 0.9 | 1.7 | 0.00 | 0.28 | 0.28 | 92 | 1008.6 |
| 20260507104351 | 45 | 268 | 2.6 | 2.6 | 0.00 | 0.28 | 0.28 | 92 | 1008.8 |
| 20260507103847 | 45 | 170 | 1.7 | 2.6 | 0.00 | 0.28 | 0.28 | 93 | 1008.9 |
| 20260507103344 | 45 | 4 | 2.6 | 2.6 | 0.00 | 0.28 | 0.28 | 93 | 1008.7 |
| 20260507102840 | 45 | 143 | 1.7 | 1.7 | 0.00 | 0.28 | 0.28 | 93 | 1008.7 |
| 20260507102337 | 45 | 193 | 0.9 | 1.7 | 0.00 | 0.28 | 0.28 | 94 | 1008.8 |
| 20260507101834 | 45 | 185 | 0.0 | 0.0 | 0.00 | 0.28 | 0.28 | 94 | 1008.5 |
| 20260507101333 | 45 | 166 | 0.0 | 1.7 | 0.00 | 0.28 | 0.28 | 94 | 1008.3 |
| 20260507100831 | 45 | 186 | 0.0 | 0.0 | 0.00 | 0.28 | 0.28 | 93 | 1008.7 |
| 20260507100329 | 45 | 87 | 1.7 | 1.7 | 0.00 | 0.28 | 0.28 | 93 | 1008.9 |
| 20260507095827 | 45 | 191 | 0.9 | 1.7 | 0.00 | 0.28 | 0.28 | 94 | 1008.7 |
| 20260507095323 | 45 | 46 | 3.5 | 4.3 | 0.00 | 0.28 | 0.28 | 94 | 1008.5 |
| 20260507094821 | 45 | 196 | 1.7 | 2.6 | 0.00 | 0.28 | 0.28 | 94 | 1008.4 |
| 20260507094317 | 45 | 166 | 0.9 | 1.7 | 0.00 | 0.28 | 0.28 | 94 | 1008.8 |
| 20260507093814 | 45 | 33 | 5.2 | 7.8 | 0.00 | 0.28 | 0.28 | 94 | 1008.5 |
| 20260507093312 | 45 | 158 | 0.0 | 0.0 | 0.00 | 0.28 | 0.28 | 94 | 1008.5 |
| 20260507092810 | 45 | 193 | 0.0 | 1.7 | 0.00 | 0.28 | 0.28 | 94 | 1008.7 |
| 20260507092307 | 45 | 196 | 0.0 | 1.7 | 0.00 | 0.28 | 0.28 | 94 | 1008.9 |
| 20260507091803 | 46 | 232 | 2.6 | 2.6 | 0.00 | 0.28 | 0.28 | 94 | 1008.5 |
| 20260507091259 | 46 | 359 | 0.9 | 1.7 | 0.00 | 0.28 | 0.28 | 95 | 1008.7 |
| 20260507090759 | 47 | 177 | 1.7 | 2.6 | 0.00 | 0.28 | 0.28 | 95 | 1008.8 |
| 20260507090256 | 46 | 199 | 2.6 | 6.1 | 0.00 | 0.28 | 0.28 | 95 | 1008.8 |
| 20260507085753 | 46 | 125 | 0.9 | 1.7 | 0.00 | 0.28 | 0.28 | 95 | 1008.3 |
| 20260507085250 | 46 | 138 | 2.6 | 2.6 | 0.00 | 0.28 | 0.28 | 94 | 1008.4 |
| 20260507084748 | 46 | 212 | 0.9 | 2.6 | 0.00 | 0.28 | 0.28 | 94 | 1008.3 |
| 20260507084244 | 46 | 346 | 0.9 | 2.6 | 0.00 | 0.28 | 0.28 | 94 | 1008.4 |
| 20260507083741 | 46 | 170 | 0.9 | 1.7 | 0.00 | 0.28 | 0.28 | 95 | 1008.1 |
| 20260507083238 | 46 | 195 | 0.9 | 1.7 | 0.00 | 0.28 | 0.28 | 95 | 1008.3 |
| 20260507082734 | 46 | 157 | 2.6 | 2.6 | 0.00 | 0.28 | 0.28 | 95 | 1008.2 |
| 20260507082229 | 46 | 313 | 2.6 | 2.6 | 0.00 | 0.28 | 0.28 | 95 | 1008.3 |
| 20260507081727 | 46 | 155 | 0.0 | 1.7 | 0.00 | 0.28 | 0.28 | 95 | 1007.9 |
| 20260507081223 | 46 | 181 | 3.5 | 7.8 | 0.00 | 0.28 | 0.28 | 95 | 1007.9 |
| 20260507080720 | 46 | 184 | 0.0 | 1.7 | 0.00 | 0.28 | 0.28 | 95 | 1008.0 |
| 20260507080216 | 47 | 49 | 2.6 | 2.6 | 0.00 | 0.28 | 0.28 | 96 | 1008.4 |
| 20260507075711 | 47 | 131 | 0.9 | 1.7 | 0.00 | 0.28 | 0.28 | 96 | 1008.4 |
| 20260507075208 | 47 | 267 | 4.3 | 4.3 | 0.00 | 0.28 | 0.28 | 96 | 1008.2 |
| 20260507074704 | 46 | 224 | 1.7 | 1.7 | 0.00 | 0.28 | 0.28 | 97 | 1008.1 |
| 20260507074203 | 46 | 201 | 2.6 | 2.6 | 0.00 | 0.28 | 0.28 | 97 | 1008.0 |
| 20260507073658 | 47 | 196 | 2.6 | 2.6 | 0.00 | 0.28 | 0.28 | 97 | 1007.6 |
| 20260507073155 | 46 | 163 | 0.0 | 1.7 | 0.00 | 0.28 | 0.28 | 97 | 1007.7 |
| 20260507072653 | 46 | 174 | 0.0 | 0.0 | 0.00 | 0.28 | 0.28 | 97 | 1007.9 |
| 20260507072150 | 46 | 116 | 0.9 | 1.7 | 0.00 | 0.28 | 0.28 | 97 | 1008.0 |
| 20260507071648 | 47 | 42 | 2.6 | 2.6 | 0.00 | 0.28 | 0.28 | 97 | 1007.9 |
| 20260507071144 | 46 | 213 | 1.7 | 1.7 | 0.00 | 0.28 | 0.28 | 97 | 1008.1 |
| 20260507070641 | 47 | 126 | 0.0 | 0.0 | 0.00 | 0.28 | 0.28 | 97 | 1007.4 |
| 20260507070138 | 47 | 312 | 4.3 | 6.1 | 0.00 | 0.28 | 0.28 | 97 | 1007.8 |
| 20260507065634 | 47 | 87 | 3.5 | 4.3 | 0.00 | 0.28 | 0.28 | 97 | 1007.7 |
| 20260507065131 | 47 | 174 | 0.0 | 0.0 | 0.00 | 0.28 | 0.28 | 97 | 1008.0 |
| 20260507064628 | 47 | 215 | 2.6 | 2.6 | 0.00 | 0.28 | 0.28 | 97 | 1007.9 |
| 20260507064127 | 47 | 114 | 3.5 | 6.1 | 0.00 | 0.28 | 0.28 | 97 | 1008.1 |
| 20260507063624 | 47 | 93 | 4.3 | 6.1 | 0.00 | 0.28 | 0.28 | 97 | 1007.7 |
| 20260507063121 | 47 | 165 | 0.9 | 1.7 | 0.00 | 0.28 | 0.28 | 97 | 1007.9 |
| 20260507062618 | 47 | 211 | 1.7 | 2.6 | 0.00 | 0.28 | 0.28 | 98 | 1008.0 |
| 20260507062115 | 47 | 170 | 1.7 | 2.6 | 0.00 | 0.28 | 0.28 | 98 | 1007.9 |
| 20260507061613 | 48 | 272 | 0.9 | 1.7 | 0.00 | 0.28 | 0.28 | 98 | 1007.8 |
| 20260507061111 | 48 | 166 | 0.0 | 1.7 | 0.00 | 0.28 | 0.28 | 98 | 1007.9 |
| 20260507060609 | 48 | 191 | 0.9 | 1.7 | 0.00 | 0.28 | 0.28 | 99 | 1007.8 |
| 20260507060105 | 48 | 195 | 4.3 | 7.8 | 0.00 | 0.28 | 0.28 | 99 | 1007.8 |
| 20260507055600 | 48 | 302 | 0.9 | 1.7 | 0.00 | 0.28 | 0.28 | 99 | 1008.0 |
| 20260507055057 | 47 | 175 | 0.0 | 0.0 | 0.00 | 0.28 | 0.28 | 99 | 1007.8 |
| 20260507054553 | 47 | 100 | 2.6 | 2.6 | 0.00 | 0.28 | 0.28 | 99 | 1007.7 |
| 20260507054050 | 47 | 97 | 2.6 | 2.6 | 0.00 | 0.28 | 0.28 | 99 | 1007.9 |
| 20260507053548 | 47 | 175 | 0.0 | 0.0 | 0.00 | 0.28 | 0.28 | 99 | 1007.7 |
| 20260507053046 | 47 | 79 | 1.7 | 2.6 | 0.00 | 0.28 | 0.28 | 99 | 1007.7 |
| 20260507052543 | 47 | 181 | 0.0 | 0.0 | 0.00 | 0.28 | 0.28 | 99 | 1007.7 |
| 20260507052040 | 47 | 50 | 4.3 | 6.1 | 0.00 | 0.28 | 0.28 | 99 | 1007.9 |
| 20260507051538 | 47 | 157 | 0.0 | 1.7 | 0.00 | 0.28 | 0.28 | 99 | 1007.9 |
| 20260507051034 | 47 | 170 | 0.9 | 1.7 | 0.00 | 0.28 | 0.28 | 99 | 1007.8 |
| 20260507050531 | 47 | 65 | 2.6 | 2.6 | 0.00 | 0.28 | 0.28 | 99 | 1007.9 |
| 20260507050027 | 47 | 146 | 0.9 | 1.7 | 0.00 | 0.28 | 0.28 | 99 | 1007.8 |
| 20260507045524 | 47 | 153 | 1.7 | 1.7 | 0.00 | 0.28 | 0.28 | 99 | 1007.7 |
| 20260507045021 | 48 | 76 | 2.6 | 2.6 | 0.00 | 0.28 | 0.28 | 98 | 1007.5 |
| 20260507044518 | 48 | 181 | 0.0 | 1.7 | 0.00 | 0.28 | 0.28 | 98 | 1007.5 |
| 20260507044015 | 48 | 62 | 7.0 | 12.2 | 0.00 | 0.28 | 0.28 | 99 | 1007.7 |
| 20260507043511 | 48 | 164 | 1.7 | 1.7 | 0.00 | 0.28 | 0.28 | 99 | 1007.5 |
| 20260507043008 | 48 | 31 | 5.2 | 7.8 | 0.00 | 0.28 | 0.28 | 99 | 1007.7 |
| 20260507042504 | 48 | 12 | 6.1 | 8.7 | 0.00 | 0.28 | 0.28 | 99 | 1007.6 |
| 20260507042000 | 48 | 264 | 0.0 | 1.7 | 0.00 | 0.28 | 0.28 | 99 | 1007.4 |
| 20260507041457 | 48 | 256 | 4.3 | 6.1 | 0.00 | 0.28 | 0.28 | 99 | 1007.7 |
| 20260507040954 | 49 | 234 | 1.7 | 1.7 | 0.00 | 0.28 | 0.28 | 99 | 1007.6 |
| 20260507040449 | 49 | 5 | 5.2 | 7.8 | 0.00 | 0.28 | 0.28 | 99 | 1007.4 |
| 20260507035945 | 49 | 275 | 4.3 | 6.1 | 0.00 | 0.28 | 0.28 | 99 | 1007.7 |
| 20260507035442 | 49 | 176 | 0.9 | 1.7 | 0.00 | 0.28 | 0.28 | 99 | 1007.6 |
| 20260507034939 | 49 | 81 | 0.0 | 1.7 | 0.00 | 0.28 | 0.28 | 99 | 1007.3 |
| 20260507034436 | 49 | 153 | 0.9 | 1.7 | 0.00 | 0.28 | 0.28 | 99 | 1007.3 |
| 20260507033934 | 50 | 248 | 1.7 | 2.6 | 0.00 | 0.28 | 0.28 | 99 | 1007.2 |
| 20260507033432 | 50 | 30 | 3.5 | 6.1 | 0.00 | 0.28 | 0.28 | 99 | 1007.2 |
| 20260507032928 | 50 | 35 | 1.7 | 2.6 | 0.12 | 0.28 | 0.28 | 99 | 1007.6 |
| 20260507032425 | 51 | 140 | 2.6 | 4.3 | 0.17 | 0.28 | 0.28 | 98 | 1007.3 |
| 20260507031921 | 51 | 221 | 0.9 | 1.7 | 0.19 | 0.27 | 0.27 | 98 | 1007.5 |
| 20260507031418 | 51 | 184 | 2.6 | 2.6 | 0.14 | 0.25 | 0.25 | 99 | 1007.5 |
| 20260507030915 | 51 | 176 | 2.6 | 2.6 | 0.07 | 0.24 | 0.24 | 98 | 1007.6 |
| 20260507030412 | 52 | 184 | 4.3 | 6.1 | 0.05 | 0.23 | 0.23 | 99 | 1007.5 |
| 20260507025909 | 52 | 40 | 0.9 | 1.7 | 0.05 | 0.23 | 0.23 | 99 | 1007.3 |
| 20260507025406 | 53 | 136 | 4.3 | 6.1 | 0.00 | 0.22 | 0.22 | 99 | 1007.3 |
| 20260507024904 | 54 | 170 | 0.0 | 1.7 | 0.07 | 0.22 | 0.22 | 99 | 1007.6 |
| 20260507024401 | 55 | 348 | 4.3 | 6.1 | 0.07 | 0.22 | 0.22 | 99 | 1007.4 |
| 20260507023857 | 55 | 128 | 6.1 | 12.2 | 0.05 | 0.21 | 0.21 | 99 | 1007.0 |
| 20260507023354 | 56 | 271 | 5.2 | 8.7 | 0.05 | 0.21 | 0.21 | 99 | 1006.7 |
| 20260507022851 | 56 | 272 | 4.3 | 6.1 | 0.00 | 0.20 | 0.20 | 99 | 1006.9 |
| 20260507022348 | 56 | 154 | 2.6 | 7.8 | 0.00 | 0.20 | 0.20 | 99 | 1006.9 |
| 20260507021844 | 56 | 172 | 3.5 | 6.1 | 0.00 | 0.20 | 0.20 | 99 | 1006.9 |
| 20260507021339 | 57 | 152 | 1.7 | 1.7 | 0.07 | 0.20 | 0.20 | 99 | 1006.6 |
| 20260507020837 | 57 | 210 | 5.2 | 6.1 | 0.07 | 0.20 | 0.20 | 99 | 1006.6 |
| 20260507020333 | 58 | 169 | 0.9 | 1.7 | 0.12 | 0.20 | 0.20 | 99 | 1006.4 |
| 20260507015831 | 59 | 241 | 7.0 | 8.7 | 0.12 | 0.19 | 0.19 | 99 | 1006.5 |
| 20260507015329 | 59 | 222 | 6.1 | 7.8 | 0.07 | 0.18 | 0.18 | 99 | 1006.3 |
| 20260507014825 | 59 | 185 | 6.1 | 7.8 | 0.00 | 0.17 | 0.17 | 99 | 1006.3 |
| 20260507014322 | 59 | 210 | 6.1 | 8.7 | 0.00 | 0.17 | 0.17 | 99 | 1006.4 |
| 20260507013818 | 59 | 210 | 8.7 | 10.4 | 0.00 | 0.17 | 0.17 | 99 | 1006.3 |
| 20260507013315 | 59 | 211 | 6.1 | 7.8 | 0.00 | 0.17 | 0.17 | 99 | 1006.3 |
| 20260507012813 | 59 | 210 | 4.3 | 6.1 | 0.00 | 0.17 | 0.17 | 99 | 1006.3 |
| 20260507012309 | 59 | 230 | 7.8 | 8.7 | 0.00 | 0.17 | 0.17 | 99 | 1006.3 |
| 20260507011806 | 59 | 181 | 2.6 | 2.6 | 0.00 | 0.17 | 0.17 | 99 | 1006.4 |
| 20260507011303 | 59 | 209 | 4.3 | 7.8 | 0.00 | 0.17 | 0.17 | 99 | 1006.4 |
| 20260507010802 | 59 | 232 | 7.8 | 8.7 | 0.00 | 0.17 | 0.17 | 99 | 1006.4 |
| 20260507010258 | 59 | 226 | 10.4 | 12.2 | 0.00 | 0.17 | 0.17 | 99 | 1006.6 |
| 20260507005756 | 59 | 207 | 6.1 | 7.8 | 0.00 | 0.17 | 0.17 | 99 | 1006.4 |
| 20260507005252 | 59 | 204 | 4.3 | 4.3 | 0.00 | 0.17 | 0.17 | 99 | 1006.5 |
| 20260507004749 | 59 | 191 | 6.1 | 7.8 | 0.00 | 0.17 | 0.17 | 99 | 1006.4 |
| 20260507004246 | 59 | 195 | 6.1 | 6.1 | 0.00 | 0.17 | 0.17 | 99 | 1006.5 |
| 20260507003742 | 59 | 193 | 7.0 | 7.8 | 0.00 | 0.17 | 0.17 | 99 | 1006.4 |
| 20260507003238 | 59 | 164 | 2.6 | 2.6 | 0.00 | 0.17 | 0.17 | 99 | 1006.3 |
| 20260507002734 | 59 | 209 | 7.8 | 8.7 | 0.00 | 0.17 | 0.17 | 99 | 1006.3 |
| 20260507002230 | 59 | 218 | 7.0 | 7.8 | 0.00 | 0.17 | 0.17 | 99 | 1006.3 |
| 20260507001727 | 59 | 217 | 9.6 | 10.4 | 0.00 | 0.17 | 0.17 | 99 | 1006.4 |
| 20260507001225 | 59 | 229 | 9.6 | 10.4 | 0.00 | 0.17 | 0.17 | 99 | 1006.3 |
| 20260507000721 | 59 | 217 | 7.8 | 8.7 | 0.00 | 0.17 | 0.17 | 99 | 1006.3 |
| 20260507000216 | 59 | 197 | 11.3 | 13.0 | 0.00 | 0.17 | 0.17 | 99 | 1006.0 |
| 20260506235714 | 59 | 229 | 8.7 | 10.4 | 0.00 | 0.17 | 0.17 | 99 | 1006.2 |
| 20260506235209 | 59 | 189 | 8.7 | 10.4 | 0.00 | 0.17 | 0.17 | 99 | 1005.9 |
| 20260506234706 | 59 | 172 | 6.1 | 7.8 | 0.00 | 0.17 | 0.17 | 99 | 1005.9 |
| 20260506234204 | 59 | 179 | 6.1 | 7.8 | 0.00 | 0.17 | 0.17 | 99 | 1006.1 |
| 20260506233701 | 59 | 234 | 7.8 | 8.7 | 0.00 | 0.17 | 0.17 | 99 | 1006.3 |
| 20260506233157 | 59 | 205 | 7.0 | 8.7 | 0.00 | 0.17 | 0.17 | 99 | 1006.3 |
| 20260506232654 | 59 | 220 | 9.6 | 10.4 | 0.00 | 0.17 | 0.17 | 99 | 1006.0 |
| 20260506232149 | 59 | 185 | 9.6 | 10.4 | 0.00 | 0.17 | 0.17 | 99 | 1006.1 |
| 20260506231646 | 59 | 186 | 6.1 | 7.8 | 0.00 | 0.17 | 0.17 | 98 | 1006.1 |
| 20260506231145 | 59 | 216 | 7.8 | 8.7 | 0.00 | 0.17 | 0.17 | 98 | 1006.2 |
| 20260506230641 | 59 | 226 | 12.2 | 14.8 | 0.00 | 0.17 | 0.17 | 98 | 1006.3 |
| 20260506230138 | 59 | 234 | 8.7 | 12.2 | 0.00 | 0.17 | 0.17 | 98 | 1005.9 |
| 20260506225634 | 59 | 214 | 6.1 | 7.8 | 0.00 | 0.17 | 0.17 | 98 | 1006.3 |
| 20260506225131 | 59 | 176 | 7.0 | 7.8 | 0.00 | 0.17 | 0.17 | 98 | 1006.0 |
| 20260506224628 | 59 | 189 | 7.8 | 8.7 | 0.00 | 0.17 | 0.17 | 98 | 1006.2 |